Regional Weather Roundup
Issued by NWS

Home | Current Version | Previous Version | Text Only | Print | Product List | Glossary On
Versions: 1 2 3 4 5 6 7 8 9 10 11 12 13 14 15 16 17 18 19 20 21 22 23 24 25 26 27 28 29 30 31 32 33 34 35 36 37 38 39 40 41 42 43 44 45 46 47 48 49 50
000
ASUS43 KIND 300409
RWRIN

WEATHER ROUNDUP FOR INDIANA
NATIONAL WEATHER SERVICE INDIANAPOLIS IN
1200 AM EDT MON MAR 30 2015

NOTE: "FAIR" INDICATES FEW OR NO CLOUDS BELOW 12,000 FEET WITH NO
SIGNIFICANT WEATHER AND/OR OBSTRUCTIONS TO VISIBILITY.

* - STATION DOES NOT REPORT WEATHER SUCH AS PRECIPITATION OR FOG.

+ - STATION NOT QUALITY CONTROLLED BY THE NATIONAL WEATHER SERVICE.
    USE DATA WITH CAUTION...ESPECIALLY DEWPOINT AND RELATIVE
    HUMIDITY OBSERVATIONS.

INZ001>003-010>013-019-020-300500-
NORTHWEST INDIANA

CITY           SKY/WX    TMP DP  RH WIND       PRES   REMARKS
GARY /AIRPORT/ PTCLDY    43  30  61 W6        29.93R
KNOX *+          N/A     45  21  39 NW14G23   29.91R
LA PORTE +     CLOUDY    46  35  66 NW10G22   29.92R
MICHIGAN CITY+ CLOUDY    43  32  65 NW12G18   29.93R
MONTICELLO +   MOCLDY    44  37  76 NW17G26   29.94R
RENSSELAER +   PTCLDY    43  37  81 W9G17     29.96R
VALPARAISO     CLOUDY    45  33  63 NW9G21    29.93R

$$

LMZ046-743>745-300500-
SOUTHERN LAKE MICHIGAN

STATION/POSITION TIME  TEMP WIND        PRES
                       AIR  DIR/SP/G
                 (UTC) (F)  (DEG/KT/KT) (MB)
BURNS HARBOR     0400   41  300/ 11/ 16 1013.9S
MICHIGAN CITY    0400   39  260/ 15/ 17   N/A

$$

INZ004-005-014>016-021>024-300500-
NORTH CENTRAL INDIANA

CITY           SKY/WX    TMP DP  RH WIND       PRES   REMARKS
GOSHEN         CLOUDY    44  34  67 W16G25    29.87R
LOGANSPORT +   CLOUDY    43  37  81 W13       29.93R
PERU/GRISSOM   CLOUDY    45  39  78 W21G29    29.90R
ROCHESTER +    CLOUDY    46  39  76 W12       29.91R
SOUTH BEND     CLOUDY    44  34  67 W12       29.90R
WARSAW +       CLOUDY    43  36  75 W17       29.89R

$$

INZ006>009-017-018-025>027-300500-
NORTHEAST INDIANA

CITY           SKY/WX    TMP DP  RH WIND       PRES   REMARKS
ANGOLA *+      CLOUDY    45  34  65 W16G24    29.82R
AUBURN +       CLOUDY    45  34  65 W15G26    29.86R
FORT WAYNE     CLOUDY    44  36  73 W20       29.87R
HUNTINGTON +   CLOUDY    44  33  66 W16G23    29.88R

$$

INZ028-029-035-036-043>045-051>053-300500-
WEST CENTRAL INDIANA

CITY           SKY/WX    TMP DP  RH WIND       PRES   REMARKS
CRAWFORDSVL +  MOCLDY    45  36  70 SW14      29.96R
GREENCASTLE +  CLOUDY    45  37  76 SW7       29.97R
LAFAYETTE      CLOUDY    47  39  74 W15G25    29.96R
TERRE HAUTE    CLOUDY    47  41  80 W12       30.00R

$$

INZ030>032-037>040-046>048-054>057-064-065-300500-
CENTRAL INDIANA

CITY           SKY/WX    TMP DP  RH WIND       PRES   REMARKS
CP ATTERBURY + CLOUDY    46  41  81 SW10G16   29.98R
FISHERS *+     CLOUDY    45  41  87 SW8       29.94R
FRANKFORT +    MOCLDY    45  40  83 SW18G24   29.95R
GREENWOOD *+   CLOUDY    46  37  71 SW15G21   29.96S
INDIANAPOLIS   CLOUDY    47  40  76 SW15      29.94R
-EAGLE CREEK   CLOUDY    47  40  76 W8G21     29.94R
KOKOMO *+        N/A     45  37  76 W18G28    29.92R
MARION +       MOCLDY    43  37  78 W18       29.91R
MT COMFORT *+  CLOUDY    45  34  65 SW10      29.94S
SHELBYVILLE    CLOUDY    45  38  76 SW12      29.95S
ZIONSVILLE +   CLOUDY    47  39  74 W16       29.94R

$$

INZ033-034-041-042-049-050-058-059-300500-
EAST CENTRAL INDIANA

CITY           SKY/WX    TMP DP  RH WIND       PRES   REMARKS
MUNCIE         CLOUDY    45  37  73 SW14      29.90S

$$

INZ060-061-067>069-081>083-085>088-300500-
SOUTHWEST INDIANA

CITY           SKY/WX    TMP DP  RH WIND       PRES   REMARKS
EVANSVILLE     CLOUDY    55  44  66 W13       30.06R
HUNTINGBURG *+ CLOUDY    52  41  66 W14       30.05R
WASHINGTON +   CLOUDY    49  40  70 SW14      30.02R

$$

INZ062-063-066-070>080-084-089>092-300500-
SOUTH CENTRAL AND SOUTHEAST INDIANA

CITY           SKY/WX    TMP DP  RH WIND       PRES   REMARKS
BEDFORD +      CLOUDY    48  41  76 W10G17    30.01R
BLOOMINGTON    CLOUDY    49  42  77 SW15      29.99R
NORTH VERNON + CLOUDY    45  45 100 SW8       29.99F
SEYMOUR +      CLOUDY    48  41  76 SW10      30.00S

$$



USA.gov is the U.S. government's official web portal to all federal, state and local government web resources and services.